Regional Weather Roundup
Issued by NWS Charleston, SC

Current Version | Previous Version | Text Only | Print | Product List | Glossary Off
Versions: 1 2 3 4 5 6 7 8 9 10 11 12 13 14 15 16 17 18 19 20 21 22 23 24 25 26 27 28 29 30 31 32 33 34 35 36 37 38 39 40 41 42 43 44 45 46 47 48 49 50

000
ASUS42 KCHS 161910
RWRCHS
REGIONAL WEATHER ROUNDUP
NATIONAL WEATHER SERVICE CHARLESTON SC
300 PM EDT WED APR 16 2014

NOTE: "FAIR" INDICATES FEW OR NO CLOUDS BELOW 12,000 FEET WITH NO
SIGNIFICANT WEATHER AND/OR OBSTRUCTIONS TO VISIBILITY.

NOT ALL STATIONS ARE QUALITY CONTROLLED BY THE NATIONAL
WEATHER SERVICE. USE DATA WITH CAUTION...ESPECIALLY
DEWPOINT OBSERVATIONS.

SCZ027-030-031-034>040-042>050-162000-
...SOUTH CAROLINA...

CITY           SKY/WX    TMP DP  RH WIND       PRES   REMARKS
N CHARLESTON   SUNNY     60  31  33 E8        30.29F
WATERFRONT PRK   N/A     55 N/A N/A E16         N/A
FORT JOHNSON   NOT AVBL
MOUNT PLEASANT FAIR     N/A N/A N/A E9G17     30.29F
JOHNS ISLAND   CLEAR     57  43  58 E15       30.30F
PINOPOLIS        N/A     55  30  38 NE8       30.23S
MONCKS CORNER  FAIR      59  37  44 N5        30.30F
SUMMERVILLE    FAIR      59  32  36 NE8       30.30F
BEAUFORT MCAS  MOSUNNY   59  36  42 S13       30.29F
BEAUFORT ARPT  FAIR      57  37  47 E8        30.29F
HILTON HEAD IS MOSUNNY   55  43  62 NE10G18   30.31S
GEORGETOWN     NOT AVBL
WALTERBORO     CLEAR     59  32  36 NE13      30.30F
ORANGEBURG     SUNNY     56  26  31 E8        30.31F
BARNWELL       FAIR      57  28  33 NE10      30.31F
AIKEN          FAIR      55  32  41 NE10G17   30.33F
MANNING        FAIR      59  27  29 NE10      30.31F
KINGSTREE      NOT AVBL
COLUMBIA       SUNNY     58  23  26 E8        30.32F
SUMTER         SUNNY     56  26  32 NE12G20   30.31F
FLORENCE       SUNNY     57  26  30 NE9       30.33F
MYRTLE BEACH   SUNNY     55  30  38 NE12G17   30.32S
N MYRTLE BEACH SUNNY     56  28  34 E9G20     30.31F

$$

GAZ063-065-086>088-099>101-113>116-118-119-134-136>141-150-162000-
...GEORGIA...

CITY           SKY/WX    TMP DP  RH WIND       PRES   REMARKS
SAVANNAH ARPT  MOSUNNY   60  38  43 NE8G16    30.29F
HUNTER AAF     PTSUNNY   57  41  55 E10G17    30.27F
FORT STEWART   SUNNY     59  42  52 VRB5G21   30.26F
STATESBORO     NOT AVBL
SYLVANIA       CLEAR     59  29  32 CALM      30.29F
CLAXTON        FAIR      61  39  44 E12G20    30.28S
THOMSON        SUNNY     57  32  39 NE10G18   30.34S
AUGUSTA-BUSH   SUNNY     59  26  28 E12       30.30F
AUGUSTA-DANIEL SUNNY     58  26  29 E7G18     30.30F
SWAINSBORO     FAIR      57  32  38 SE13      30.28F
VIDALIA        SUNNY     59  36  41 E13       30.27S
ALMA           SUNNY     60  38  43 NE9       30.25S
WAYCROSS       NOT AVBL
JESUP          FAIR      59  43  55 E6G21     30.26F
BRUNSWICK      PTSUNNY   59  46  63 NE17G24   30.27F
SAINT SIMONS   PTSUNNY   59  47  64 NE20G25   30.26F HAZE

$$

SCZ027-028-034-036>038-045-046-048>050-GAZ119-141-162000-
...LAKE AND SUPPLEMENTAL COASTAL OBSERVATIONS...

STATION/POSITION TIME  TEMP    WIND        PRES    WAVE   SWELL
                       AIR SEA DIR/SP/G            HT/PER HT/PER/DIR
                 (UTC) (F)     (DEG/KT/KT) (MB)    (FT/S) (FT/S/D)
UPR LAKE MARION  NOT AVBL
WINYAH BAY       1800   51      60/ 12     1026.0S
LAKE MURRAY      1800   53      60/  3/  9 1026.4F
ACE BASIN NERRS  1800   57      50/  4     1026.0S
FORT PULASKI     1900   53 61   50/ 18/ 20 1026.2F
SAPELO ISLAND    1800   56      40/ 15     1025.0S

$$

ANZ086-088-AMZ330-350-352-354-374-454-470-162000-
...C-MAN AND BUOY OBSERVATIONS...

STATION/POSITION TIME  TEMP    WIND        PRES    WAVE   SWELL
                       AIR SEA DIR/SP/G            HT/PER HT/PER/DIR
                 (UTC) (F)     (DEG/KT/KT) (MB)    (FT/S) (FT/S/D)
FOLLY BEACH CMAN 1900   53      70/ 19/ 22 1026.6F
BUOY 41004       NOT AVBL
BUOY 41008       1900   55 63   40/ 21/ 27 1024.1F   6/ 5   2/ 90/ 8
5E ST. MARYS GA  1900      65                N/A     6/ 7
FRYING PAN BUOY  1900   49 64   50/ 21/ 27 1026.1F   7/ 7   3/ 90/ 8
BUOY 41025       NOT AVBL
CAPE LOOKOUT NC  1900   49      30/ 21/ 26 1026.9F
BUOY 41002       NOT AVBL
BUOY 41010       1900   71 76   30/ 19/ 23 1019.1F   7/ 8
BUOY 41012       NOT AVBL
ST AUGUSTINE FL  1900   60      10/ 23/ 25 1022.5F


$$


USA.gov is the U.S. government's official web portal to all federal, state and local government web resources and services.